Powrót do katalogu

SL-16 DEB

AktywnyLEO
NORAD 22665·DEBRIS·🇷🇺 Russia

Wystrzelony Dec 25, 1992 z Baikonur Cosmodrome

Loading…

Następne Przeloty (najbliższe 24 godziny)

TLE

ŚwieżeSource: Space-Track

Epoka: Sep 12, 2026, 17:38 UTC

1 22665U 92093JA  26255.73518534  .00000490  00000-0  31041-3 0  9995
2 22665  71.0782 171.5457 0068536 337.6142  47.3995 14.07672866714154

Śledź SL-16 DEB w czasie rzeczywistym z AllMySat

Download on the App Store